This is the latest recevied weather packets stored in our database for station/object K5NWZ. If no packets are shown the sender has not sent any weather packets the latest 10 day(s).
| Time | Temp. | Humidity | Pressure | Rain* | Wind** | Luminosity | Snow |
|---|---|---|---|---|---|---|---|
| 1787935952 | 27.22° C | 44% | 1029.4 hPa | 0 mm | - | 354 W/m² | - |
| 1787935652 | 26.67° C | 44% | 1029.6 hPa | 0 mm | - | 426 W/m² | - |
| 1787935349 | 27.22° C | 43% | 1029.5 hPa | 0 mm | - | 572 W/m² | - |
| 1787935044 | 27.22° C | 42% | 1029.6 hPa | 0 mm | - | 544 W/m² | - |
| 1787934739 | 26.11° C | 43% | 1029.7 hPa | 0 mm | - | 572 W/m² | - |
| 1787934438 | 26.11° C | 44% | 1029.7 hPa | 0 mm | - | 559 W/m² | - |
| 1787934133 | 25.56° C | 46% | 1029.8 hPa | 0 mm | - | 537 W/m² | - |
| 1787933831 | 26.67° C | 48% | 1029.7 hPa | 0 mm | - | 522 W/m² | - |
| 1787933527 | 26.67° C | 43% | 1029.9 hPa | 0 mm | - | 505 W/m² | - |
| 1787933221 | 26.11° C | 45% | 1029.8 hPa | 0 mm | - | 492 W/m² | - |
| 1787932916 | 25.56° C | 44% | 1029.9 hPa | 0 mm | - | 478 W/m² | - |
| 1787932615 | 25° C | 47% | 1029.9 hPa | 0 mm | - | 463 W/m² | - |
| 1787932315 | 25° C | 50% | 1029.8 hPa | 0 mm | - | 447 W/m² | - |
| 1787932009 | 24.44° C | 53% | 1029.8 hPa | 0 mm | - | 432 W/m² | - |
| 1787931709 | 24.44° C | 52% | 1029.9 hPa | 0 mm | - | 416 W/m² | - |
| 1787931402 | 24.44° C | 50% | 1029.8 hPa | 0 mm | - | 403 W/m² | - |
| 1787931098 | 24.44° C | 52% | 1030.2 hPa | 0 mm | - | 393 W/m² | - |
| 1787930797 | 23.89° C | 52% | 1029.9 hPa | 0 mm | - | 378 W/m² | - |
| 1787930492 | 24.44° C | 53% | 1030.1 hPa | 0 mm | - | 386 W/m² | - |
| 1787930187 | 23.89° C | 51% | 1029.8 hPa | 0 mm | - | 351 W/m² | - |
| 1787929886 | 23.89° C | 52% | 1030.1 hPa | 0 mm | - | 338 W/m² | - |
| 1787929581 | 23.33° C | 55% | 1030.1 hPa | 0 mm | - | 326 W/m² | - |
| 1787929280 | 23.33° C | 56% | 1029.9 hPa | 0 mm | - | 313 W/m² | - |
| 1787928978 | 23.33° C | 59% | 1030.1 hPa | 0 mm | - | 299 W/m² | - |
| 1787928673 | 22.78° C | 60% | 1029.9 hPa | 0 mm | - | 288 W/m² | - |
* Rain latest hour (hover to see other rain measurements)
** Current wind speed in m/s (hover to see current wind gust speed)